KLM1196 ENGM-EHAM

Flight info

Callsign KLM1196
Flight time 1h 33m
Altitude 36000
Route VIPPA DCT KUGAL DCT EEL DCT BLUFA
Aircraft A21N/M-SDE2E3FGHIRWXY/LB1

Departure

Time 2026-05-06 09:21
Airport Oslo-Gardermoen International Airport (ENGM)

Arrival

Time 2026-05-06 10:54
Airport Amsterdam Airport Schiphol (EHAM)
Time Latitude Longitude Altitude Speed Heading
2026-05-06 09:01 60.19443 11.10353 694 ft 0 kts 196°
2026-05-06 09:07 60.19445 11.10354 694 ft 2 kts 196°
2026-05-06 09:08 60.19469 11.10367 692 ft 4 kts 192°
2026-05-06 09:08 60.19496 11.10376 689 ft 4 kts 185°
2026-05-06 09:08 60.19522 11.10376 690 ft 4 kts 168°
2026-05-06 09:08 60.19543 11.10357 685 ft 4 kts 116°
2026-05-06 09:09 60.19545 11.10349 685 ft 0 kts 106°
2026-05-06 09:12 60.19545 11.10353 694 ft 2 kts 106°
2026-05-06 09:12 60.19538 11.10397 687 ft 6 kts 106°
2026-05-06 09:13 60.19522 11.10512 688 ft 11 kts 105°
2026-05-06 09:13 60.19512 11.10584 694 ft 1 kts 105°
2026-05-06 09:13 60.19505 11.10639 690 ft 7 kts 106°
2026-05-06 09:13 60.19501 11.10755 690 ft 10 kts 59°
2026-05-06 09:14 60.19559 11.10733 689 ft 12 kts 297°
2026-05-06 09:14 60.19610 11.10596 692 ft 14 kts 346°
2026-05-06 09:14 60.19675 11.10610 694 ft 16 kts 23°
2026-05-06 09:14 60.19824 11.10689 690 ft 18 kts 16°
2026-05-06 09:15 60.19909 11.10727 687 ft 19 kts 349°
2026-05-06 09:15 60.19990 11.10409 690 ft 22 kts 287°
2026-05-06 09:15 60.20033 11.10099 692 ft 24 kts 285°
2026-05-06 09:15 60.20081 11.09759 690 ft 26 kts 285°
2026-05-06 09:16 60.20116 11.09512 687 ft 28 kts 286°
2026-05-06 09:16 60.20169 11.09139 692 ft 19 kts 286°
2026-05-06 09:16 60.20210 11.08958 687 ft 15 kts 330°
2026-05-06 09:16 60.20315 11.08981 687 ft 18 kts 17°
2026-05-06 09:17 60.20458 11.09062 682 ft 23 kts 15°
2026-05-06 09:17 60.20619 11.09159 687 ft 25 kts 16°
2026-05-06 09:17 60.20796 11.09260 687 ft 27 kts 15°
2026-05-06 09:17 60.20986 11.09369 686 ft 30 kts 15°
2026-05-06 09:18 60.21193 11.09488 679 ft 32 kts 15°
2026-05-06 09:18 60.21406 11.09612 681 ft 21 kts 18°
2026-05-06 09:18 60.21529 11.09573 676 ft 21 kts 304°
2026-05-06 09:18 60.21561 11.09400 672 ft 1 kts 285°
2026-05-06 09:19 60.21564 11.09377 672 ft 0 kts 285°
2026-05-06 09:19 60.21565 11.09369 672 ft 3 kts 285°
2026-05-06 09:19 60.21575 11.09298 672 ft 8 kts 285°
2026-05-06 09:20 60.21581 11.09167 672 ft 9 kts 242°
2026-05-06 09:20 60.21505 11.09104 674 ft 27 kts 197°
2026-05-06 09:20 60.21083 11.08861 681 ft 99 kts 196°
2026-05-06 09:20 60.20181 11.08339 685 ft 169 kts 197°
2026-05-06 09:21 60.18916 11.07590 954 ft 198 kts 197°
2026-05-06 09:21 60.17587 11.06820 1673 ft 205 kts 197°
2026-05-06 09:21 60.16295 11.05720 2629 ft 200 kts 218°
2026-05-06 09:21 60.15377 11.03524 3060 ft 218 kts 240°
2026-05-06 09:22 60.14674 11.00625 3417 ft 243 kts 248°
2026-05-06 09:22 60.14054 10.97392 4055 ft 251 kts 250°
2026-05-06 09:22 60.13446 10.94073 4848 ft 255 kts 250°
2026-05-06 09:22 60.12833 10.90714 5759 ft 257 kts 250°
2026-05-06 09:23 60.12212 10.87347 6706 ft 257 kts 250°
2026-05-06 09:23 60.11586 10.83970 7649 ft 258 kts 250°
2026-05-06 09:23 60.10967 10.80589 8579 ft 259 kts 250°
2026-05-06 09:23 60.10359 10.77227 9496 ft 261 kts 250°
2026-05-06 09:24 60.09744 10.73787 10292 ft 266 kts 250°
2026-05-06 09:24 60.09088 10.70172 10665 ft 287 kts 250°
2026-05-06 09:24 60.08356 10.66282 10993 ft 309 kts 248°
2026-05-06 09:24 60.07390 10.62255 11328 ft 331 kts 242°
2026-05-06 09:25 60.06102 10.58318 11917 ft 344 kts 235°
2026-05-06 09:25 60.04472 10.54748 12758 ft 351 kts 222°
2026-05-06 09:25 60.02309 10.52342 13575 ft 366 kts 204°
2026-05-06 09:25 59.99751 10.51456 14266 ft 382 kts 188°
2026-05-06 09:26 59.97066 10.51487 15022 ft 387 kts 185°
2026-05-06 09:26 59.94364 10.51661 15753 ft 390 kts 185°
2026-05-06 09:26 59.91639 10.51866 16458 ft 392 kts 186°
2026-05-06 09:26 59.88933 10.51571 17131 ft 387 kts 195°
2026-05-06 09:27 59.86343 10.50524 17811 ft 384 kts 201°
2026-05-06 09:27 59.83770 10.49114 18452 ft 384 kts 204°
2026-05-06 09:27 59.81224 10.47495 19072 ft 384 kts 205°
2026-05-06 09:27 59.78698 10.45771 19683 ft 384 kts 206°
2026-05-06 09:28 59.76169 10.44000 20295 ft 386 kts 206°
2026-05-06 09:28 59.73630 10.42212 20801 ft 389 kts 206°
2026-05-06 09:28 59.71064 10.40424 21367 ft 391 kts 206°
2026-05-06 09:28 59.68483 10.38650 21936 ft 394 kts 206°
2026-05-06 09:29 59.65875 10.36873 22478 ft 396 kts 205°
2026-05-06 09:29 59.63256 10.35098 23012 ft 398 kts 205°
2026-05-06 09:29 59.60617 10.33318 23523 ft 401 kts 205°
2026-05-06 09:29 59.57998 10.31555 23931 ft 403 kts 205°
2026-05-06 09:30 59.55340 10.29772 24346 ft 404 kts 205°
2026-05-06 09:30 59.52664 10.27982 24775 ft 406 kts 205°
2026-05-06 09:30 59.49971 10.26183 25178 ft 408 kts 205°
2026-05-06 09:30 59.47280 10.24388 25537 ft 409 kts 205°
2026-05-06 09:31 59.44575 10.22586 25928 ft 411 kts 205°
2026-05-06 09:31 59.41871 10.20787 26381 ft 410 kts 205°
2026-05-06 09:31 59.39212 10.19023 26884 ft 407 kts 205°
2026-05-06 09:31 59.36539 10.17256 27416 ft 404 kts 205°
2026-05-06 09:32 59.33884 10.15502 27922 ft 401 kts 205°
2026-05-06 09:32 59.31236 10.13755 28389 ft 400 kts 205°
2026-05-06 09:32 59.28605 10.12021 28890 ft 398 kts 205°
2026-05-06 09:32 59.25991 10.10301 29336 ft 396 kts 205°
2026-05-06 09:33 59.23387 10.08590 29752 ft 394 kts 205°
2026-05-06 09:33 59.20781 10.06884 30114 ft 392 kts 205°
2026-05-06 09:33 59.18222 10.05203 30405 ft 393 kts 205°
2026-05-06 09:33 59.15626 10.03497 30682 ft 394 kts 205°
2026-05-06 09:34 59.13032 10.01795 31003 ft 393 kts 205°
2026-05-06 09:34 59.10437 10.00098 31323 ft 392 kts 205°
2026-05-06 09:34 59.07847 9.98409 31627 ft 392 kts 205°
2026-05-06 09:34 59.05255 9.96722 31932 ft 392 kts 205°
2026-05-06 09:35 59.02670 9.95044 32214 ft 391 kts 205°
2026-05-06 09:35 59.00085 9.93372 32494 ft 391 kts 205°
2026-05-06 09:35 58.97506 9.91704 32776 ft 390 kts 205°
2026-05-06 09:35 58.94929 9.90038 33045 ft 390 kts 205°
2026-05-06 09:36 58.92355 9.88374 33197 ft 391 kts 204°
2026-05-06 09:36 58.89770 9.86703 33361 ft 392 kts 204°
2026-05-06 09:36 58.87178 9.85033 33608 ft 392 kts 204°
2026-05-06 09:36 58.84627 9.83394 33863 ft 391 kts 204°
2026-05-06 09:37 58.82014 9.81719 34083 ft 391 kts 204°
2026-05-06 09:37 58.79461 9.80085 34237 ft 391 kts 204°
2026-05-06 09:37 58.76876 9.78432 34373 ft 392 kts 204°
2026-05-06 09:37 58.74278 9.76772 34504 ft 393 kts 204°
2026-05-06 09:38 58.71678 9.75114 34648 ft 394 kts 204°
2026-05-06 09:38 58.69072 9.73456 34771 ft 395 kts 204°
2026-05-06 09:38 58.66460 9.71796 34878 ft 396 kts 204°
2026-05-06 09:39 58.61200 9.68460 35039 ft 399 kts 203°
2026-05-06 09:39 58.58558 9.66790 35174 ft 399 kts 203°
2026-05-06 09:39 58.55922 9.65127 35320 ft 400 kts 203°
2026-05-06 09:39 58.53307 9.63480 35444 ft 400 kts 203°
2026-05-06 09:40 58.50657 9.61812 35559 ft 401 kts 203°
2026-05-06 09:40 58.48004 9.60145 35677 ft 401 kts 203°
2026-05-06 09:40 58.42688 9.56813 35902 ft 403 kts 203°
2026-05-06 09:41 58.37342 9.53472 36008 ft 405 kts 203°
2026-05-06 09:41 58.31983 9.50136 36010 ft 404 kts 203°
2026-05-06 09:42 58.26641 9.46822 36010 ft 404 kts 203°
2026-05-06 09:42 58.21326 9.43532 36006 ft 404 kts 203°
2026-05-06 09:43 58.15974 9.40230 36007 ft 404 kts 203°
2026-05-06 09:43 58.10628 9.36942 36003 ft 404 kts 202°
2026-05-06 09:44 58.05272 9.33658 36007 ft 404 kts 202°
2026-05-06 09:44 57.99943 9.30402 36007 ft 404 kts 202°
2026-05-06 09:45 57.94552 9.27118 36007 ft 404 kts 202°
2026-05-06 09:45 57.89232 9.23887 36001 ft 404 kts 202°
2026-05-06 09:46 57.83871 9.20641 36000 ft 405 kts 202°
2026-05-06 09:46 57.78499 9.17398 36001 ft 405 kts 202°
2026-05-06 09:47 57.73125 9.14166 36001 ft 405 kts 202°
2026-05-06 09:47 57.67752 9.10944 35994 ft 405 kts 202°
2026-05-06 09:48 57.62382 9.07733 35992 ft 405 kts 202°
2026-05-06 09:48 57.57032 9.04543 35988 ft 406 kts 202°
2026-05-06 09:49 57.51641 9.01340 35990 ft 407 kts 202°
2026-05-06 09:49 57.46246 8.98145 35987 ft 407 kts 202°
2026-05-06 09:50 57.40842 8.94955 35989 ft 407 kts 201°
2026-05-06 09:50 57.35430 8.91769 35984 ft 407 kts 201°
2026-05-06 09:51 57.30057 8.88615 35987 ft 407 kts 201°
2026-05-06 09:51 57.24650 8.85451 35983 ft 407 kts 201°
2026-05-06 09:52 57.19235 8.82293 35980 ft 407 kts 201°
2026-05-06 09:52 57.13823 8.79147 35977 ft 407 kts 201°
2026-05-06 09:53 57.08451 8.76033 35987 ft 407 kts 201°
2026-05-06 09:53 57.03040 8.72906 35987 ft 407 kts 201°
2026-05-06 09:54 56.97641 8.69796 35988 ft 407 kts 201°
2026-05-06 09:54 56.92237 8.66691 35982 ft 407 kts 201°
2026-05-06 09:55 56.86832 8.63596 35982 ft 407 kts 201°
2026-05-06 09:55 56.81419 8.60506 35966 ft 407 kts 201°
2026-05-06 09:56 56.76047 8.57446 35977 ft 407 kts 200°
2026-05-06 09:56 56.70634 8.54375 35977 ft 407 kts 200°
2026-05-06 09:57 56.65213 8.51308 35978 ft 407 kts 200°
2026-05-06 09:57 56.59795 8.48252 35973 ft 407 kts 200°
2026-05-06 09:58 56.54378 8.45205 35957 ft 407 kts 200°
2026-05-06 09:58 56.48962 8.42168 35972 ft 408 kts 200°
2026-05-06 09:59 56.43569 8.39154 35978 ft 408 kts 200°
2026-05-06 09:59 56.38119 8.36116 35978 ft 408 kts 200°
2026-05-06 10:00 56.32691 8.33100 35975 ft 408 kts 200°
2026-05-06 10:00 56.28179 8.30599 35959 ft 408 kts 200°
2026-05-06 10:01 56.21858 8.27106 35971 ft 409 kts 200°
2026-05-06 10:01 56.16416 8.24109 35971 ft 409 kts 199°
2026-05-06 10:02 56.11887 8.21622 35979 ft 409 kts 199°
2026-05-06 10:02 56.06438 8.18637 35979 ft 409 kts 199°
2026-05-06 10:03 56.00989 8.15661 35974 ft 409 kts 199°
2026-05-06 10:03 55.95538 8.12693 35976 ft 409 kts 199°
2026-05-06 10:04 55.90089 8.09734 35980 ft 409 kts 199°
2026-05-06 10:04 55.84664 8.06797 35980 ft 409 kts 199°
2026-05-06 10:05 55.79212 8.03855 35977 ft 409 kts 199°
2026-05-06 10:05 55.73763 8.00922 35977 ft 409 kts 199°
2026-05-06 10:06 55.68302 7.97991 35977 ft 409 kts 199°
2026-05-06 10:06 55.62846 7.95071 35974 ft 409 kts 199°
2026-05-06 10:07 55.57417 7.92175 35974 ft 409 kts 199°
2026-05-06 10:07 55.51956 7.89270 35957 ft 409 kts 199°
2026-05-06 10:08 55.46490 7.86370 35971 ft 410 kts 199°
2026-05-06 10:08 55.41058 7.83498 35971 ft 410 kts 199°
2026-05-06 10:09 55.35588 7.80613 35971 ft 410 kts 199°
2026-05-06 10:09 55.30111 7.77733 35968 ft 410 kts 199°
2026-05-06 10:10 55.24638 7.74863 35970 ft 411 kts 199°
2026-05-06 10:10 55.19159 7.71998 35964 ft 411 kts 199°
2026-05-06 10:11 55.13665 7.69133 35972 ft 412 kts 198°
2026-05-06 10:11 55.08155 7.66269 35966 ft 413 kts 198°
2026-05-06 10:12 55.02669 7.63426 35966 ft 413 kts 198°
2026-05-06 10:12 54.97159 7.60529 35967 ft 414 kts 199°
2026-05-06 10:13 54.91654 7.57540 35967 ft 414 kts 199°
2026-05-06 10:13 54.86149 7.54543 35961 ft 414 kts 199°
2026-05-06 10:14 54.80676 7.51581 35960 ft 414 kts 199°
2026-05-06 10:14 54.75158 7.48610 35958 ft 415 kts 199°
2026-05-06 10:15 54.69631 7.45645 35955 ft 416 kts 199°
2026-05-06 10:15 54.64098 7.42686 35955 ft 416 kts 199°
2026-05-06 10:16 54.58562 7.39733 35949 ft 416 kts 199°
2026-05-06 10:16 54.53060 7.36806 35949 ft 416 kts 199°
2026-05-06 10:17 54.47517 7.33865 35947 ft 417 kts 199°
2026-05-06 10:17 54.41964 7.30929 35941 ft 417 kts 199°
2026-05-06 10:18 54.36397 7.27993 35941 ft 417 kts 198°
2026-05-06 10:18 54.30873 7.25087 35939 ft 417 kts 198°
2026-05-06 10:19 54.25307 7.22167 35941 ft 418 kts 198°
2026-05-06 10:19 54.19734 7.19253 35936 ft 419 kts 198°
2026-05-06 10:20 54.14153 7.16343 35936 ft 419 kts 198°
2026-05-06 10:20 54.08614 7.13462 35933 ft 419 kts 198°
2026-05-06 10:21 54.03016 7.10559 35913 ft 419 kts 198°
2026-05-06 10:21 53.97426 7.07668 35925 ft 421 kts 198°
2026-05-06 10:22 53.91821 7.04778 35925 ft 421 kts 198°
2026-05-06 10:22 53.86241 7.01909 35927 ft 421 kts 198°
2026-05-06 10:23 53.80636 6.99035 35914 ft 421 kts 198°
2026-05-06 10:23 53.75017 6.96161 35820 ft 421 kts 198°
2026-05-06 10:24 53.72207 6.94728 35187 ft 421 kts 198°
2026-05-06 10:24 53.69394 6.93294 34483 ft 422 kts 198°
2026-05-06 10:24 53.66578 6.91862 33823 ft 421 kts 197°
2026-05-06 10:24 53.63778 6.90439 33184 ft 421 kts 197°
2026-05-06 10:25 53.60954 6.89005 32586 ft 425 kts 197°
2026-05-06 10:25 53.58107 6.87562 32049 ft 428 kts 197°
2026-05-06 10:25 53.55284 6.86133 31529 ft 430 kts 197°
2026-05-06 10:25 53.52407 6.84678 31007 ft 433 kts 196°
2026-05-06 10:26 53.49507 6.83215 30503 ft 436 kts 196°
2026-05-06 10:26 53.46597 6.81749 30001 ft 438 kts 195°
2026-05-06 10:26 53.43669 6.80277 29427 ft 440 kts 196°
2026-05-06 10:26 53.40731 6.78803 28860 ft 442 kts 196°
2026-05-06 10:27 53.37770 6.77319 28298 ft 443 kts 196°
2026-05-06 10:27 53.34812 6.75838 27748 ft 444 kts 196°
2026-05-06 10:27 53.31848 6.74356 27261 ft 444 kts 196°
2026-05-06 10:27 53.28892 6.72880 26989 ft 441 kts 196°
2026-05-06 10:28 53.25997 6.71435 26728 ft 437 kts 196°
2026-05-06 10:28 53.23086 6.69984 26468 ft 436 kts 197°
2026-05-06 10:28 53.20175 6.68536 26212 ft 436 kts 197°
2026-05-06 10:28 53.17311 6.66901 25956 ft 434 kts 202°
2026-05-06 10:29 53.14620 6.64662 25709 ft 432 kts 209°
2026-05-06 10:29 53.12036 6.62140 25461 ft 430 kts 210°
2026-05-06 10:29 53.09483 6.59561 25211 ft 426 kts 211°
2026-05-06 10:29 53.06984 6.57018 24925 ft 417 kts 211°
2026-05-06 10:30 53.04523 6.54511 24494 ft 412 kts 211°
2026-05-06 10:30 53.02095 6.52040 24022 ft 407 kts 211°
2026-05-06 10:30 52.99686 6.49590 23488 ft 403 kts 211°
2026-05-06 10:30 52.97298 6.47165 22840 ft 400 kts 211°
2026-05-06 10:31 52.94960 6.44793 22326 ft 396 kts 211°
2026-05-06 10:31 52.92612 6.42414 21770 ft 394 kts 212°
2026-05-06 10:31 52.90282 6.40056 21201 ft 391 kts 211°
2026-05-06 10:31 52.87968 6.37716 20656 ft 389 kts 211°
2026-05-06 10:32 52.85662 6.35372 20110 ft 388 kts 213°
2026-05-06 10:32 52.83553 6.32631 19555 ft 386 kts 225°
2026-05-06 10:32 52.81863 6.29222 19041 ft 384 kts 233°
2026-05-06 10:32 52.80329 6.25619 18498 ft 383 kts 234°
2026-05-06 10:33 52.78818 6.21982 17904 ft 383 kts 235°
2026-05-06 10:33 52.77314 6.18371 17178 ft 382 kts 234°
2026-05-06 10:33 52.75792 6.14740 16285 ft 386 kts 235°
2026-05-06 10:33 52.74275 6.11135 15730 ft 387 kts 235°
2026-05-06 10:34 52.72733 6.07481 15221 ft 386 kts 235°
2026-05-06 10:34 52.71201 6.03859 14726 ft 384 kts 235°
2026-05-06 10:34 52.69673 6.00256 14237 ft 381 kts 235°
2026-05-06 10:34 52.68172 5.96720 13763 ft 378 kts 236°
2026-05-06 10:35 52.66655 5.93150 13230 ft 375 kts 236°
2026-05-06 10:35 52.65156 5.89631 12673 ft 372 kts 235°
2026-05-06 10:35 52.63690 5.86191 12049 ft 370 kts 235°
2026-05-06 10:35 52.62213 5.82733 11415 ft 367 kts 235°
2026-05-06 10:36 52.60752 5.79317 10789 ft 363 kts 235°
2026-05-06 10:36 52.59310 5.75949 10177 ft 358 kts 235°
2026-05-06 10:36 52.57885 5.72624 9558 ft 353 kts 235°
2026-05-06 10:36 52.56477 5.69345 8887 ft 345 kts 235°
2026-05-06 10:37 52.55121 5.66194 8241 ft 329 kts 235°
2026-05-06 10:37 52.53823 5.63179 7607 ft 316 kts 235°
2026-05-06 10:37 52.52575 5.60282 7121 ft 303 kts 235°
2026-05-06 10:37 52.51407 5.57557 6908 ft 290 kts 236°
2026-05-06 10:38 52.50313 5.54813 6888 ft 286 kts 239°
2026-05-06 10:38 52.49265 5.52016 6884 ft 288 kts 239°
2026-05-06 10:38 52.48237 5.49195 6890 ft 289 kts 240°
2026-05-06 10:38 52.47215 5.46366 6884 ft 286 kts 240°
2026-05-06 10:39 52.46202 5.43566 6881 ft 286 kts 240°
2026-05-06 10:39 52.45179 5.40753 6778 ft 288 kts 240°
2026-05-06 10:39 52.44139 5.37911 6430 ft 291 kts 240°
2026-05-06 10:39 52.43098 5.35083 6084 ft 288 kts 240°
2026-05-06 10:40 52.42066 5.32298 5760 ft 285 kts 240°
2026-05-06 10:40 52.41037 5.29527 5451 ft 283 kts 240°
2026-05-06 10:40 52.40061 5.26865 5163 ft 283 kts 241°
2026-05-06 10:40 52.39040 5.24107 4831 ft 282 kts 240°
2026-05-06 10:41 52.37975 5.21401 4471 ft 283 kts 238°
2026-05-06 10:41 52.36881 5.18744 4095 ft 280 kts 237°
2026-05-06 10:41 52.35795 5.16109 3730 ft 278 kts 237°
2026-05-06 10:41 52.34720 5.13492 3384 ft 276 kts 237°
2026-05-06 10:42 52.33652 5.10882 3016 ft 276 kts 238°
2026-05-06 10:42 52.32583 5.08276 2657 ft 273 kts 237°
2026-05-06 10:42 52.31534 5.05709 2311 ft 269 kts 237°
2026-05-06 10:42 52.30513 5.03216 2056 ft 256 kts 237°
2026-05-06 10:43 52.29556 5.00885 1995 ft 241 kts 237°
2026-05-06 10:43 52.28621 4.98596 1992 ft 243 kts 237°
2026-05-06 10:43 52.27689 4.96301 1990 ft 242 kts 238°
2026-05-06 10:44 52.25817 4.91751 1987 ft 243 kts 237°
2026-05-06 10:44 52.24873 4.89435 1987 ft 242 kts 237°
2026-05-06 10:44 52.23949 4.87178 1992 ft 241 kts 238°
2026-05-06 10:44 52.23016 4.84903 1991 ft 241 kts 237°
2026-05-06 10:45 52.22077 4.82630 1994 ft 241 kts 237°
2026-05-06 10:45 52.21126 4.80361 1995 ft 242 kts 237°
2026-05-06 10:45 52.20185 4.78085 1998 ft 242 kts 237°
2026-05-06 10:45 52.19255 4.75831 1991 ft 241 kts 237°
2026-05-06 10:46 52.18318 4.73557 1997 ft 241 kts 238°
2026-05-06 10:46 52.17380 4.71302 1991 ft 240 kts 237°
2026-05-06 10:46 52.16439 4.69059 1995 ft 240 kts 237°
2026-05-06 10:46 52.15497 4.66816 1984 ft 240 kts 237°
2026-05-06 10:47 52.14547 4.64569 1989 ft 240 kts 237°
2026-05-06 10:47 52.13599 4.62341 1979 ft 240 kts 237°
2026-05-06 10:47 52.12969 4.60861 1988 ft 239 kts 238°
2026-05-06 10:47 52.12322 4.58430 1980 ft 233 kts 266°
2026-05-06 10:48 52.12532 4.55899 1981 ft 225 kts 299°
2026-05-06 10:48 52.13804 4.53335 1988 ft 219 kts 321°
2026-05-06 10:48 52.14564 4.52211 1991 ft 218 kts 322°
2026-05-06 10:48 52.15710 4.50580 1992 ft 218 kts 322°
2026-05-06 10:49 52.16842 4.48973 1991 ft 218 kts 322°
2026-05-06 10:49 52.18053 4.47540 1982 ft 213 kts 341°
2026-05-06 10:49 52.19472 4.47438 1985 ft 207 kts 22°
2026-05-06 10:49 52.20519 4.48956 1995 ft 206 kts 63°
2026-05-06 10:50 52.20909 4.51210 2049 ft 204 kts 73°
2026-05-06 10:50 52.21318 4.53401 1998 ft 194 kts 67°
2026-05-06 10:50 52.21837 4.55266 1987 ft 173 kts 59°
2026-05-06 10:50 52.22434 4.56917 1999 ft 167 kts 55°
2026-05-06 10:51 52.23046 4.58492 1971 ft 155 kts 55°
2026-05-06 10:51 52.23572 4.59855 2001 ft 132 kts 56°
2026-05-06 10:51 52.24045 4.61095 1852 ft 127 kts 56°
2026-05-06 10:51 52.24515 4.62318 1665 ft 127 kts 56°
2026-05-06 10:52 52.24988 4.63545 1485 ft 128 kts 55°
2026-05-06 10:52 52.25454 4.64757 1307 ft 127 kts 55°
2026-05-06 10:52 52.25927 4.65983 1128 ft 127 kts 54°
2026-05-06 10:52 52.26400 4.67210 951 ft 128 kts 54°
2026-05-06 10:53 52.26870 4.68434 776 ft 127 kts 54°
2026-05-06 10:53 52.27346 4.69666 619 ft 129 kts 55°
2026-05-06 10:53 52.27819 4.70898 429 ft 128 kts 52°
2026-05-06 10:53 52.28293 4.72124 264 ft 126 kts 54°
2026-05-06 10:54 52.28758 4.73338 102 ft 127 kts 55°
2026-05-06 10:54 52.29215 4.74531 3 ft 115 kts 57°
2026-05-06 10:54 52.29512 4.75296 1 ft 39 kts 58°
2026-05-06 10:54 52.29655 4.75658 2 ft 38 kts 49°
2026-05-06 10:55 52.29844 4.75855 1 ft 16 kts 28°
2026-05-06 10:55 52.29948 4.75948 2 ft 18 kts 28°
2026-05-06 10:55 52.30037 4.76110 2 ft 21 kts 59°
2026-05-06 10:55 52.30117 4.76318 2 ft 22 kts 57°
2026-05-06 10:56 52.30204 4.76543 2 ft 24 kts 60°
2026-05-06 10:56 52.30259 4.76696 3 ft 1 kts 59°
2026-05-06 10:56 52.30285 4.76731 2 ft 8 kts 19°
2026-05-06 10:56 52.30337 4.76696 2 ft 10 kts 322°
2026-05-06 10:57 52.30397 4.76643 2 ft 7 kts
2026-05-06 10:57 52.30425 4.76664 2 ft 2 kts 28°
2026-05-06 10:57 52.30430 4.76668 2 ft 0 kts 28°